Time,TemperatureF,DewpointF,PressureIn,WindDirection,WindDirectionDegrees,WindSpeedMPH,WindSpeedGustMPH,Humidity,HourlyPrecipIn,Conditions,Clouds,dailyrainin,SoftwareType,DateUTC
2013-03-01 00:01:00,29.5,23.0,30.33,NNE,22,0.0,0.0,77,0.00,,,0.00,WUHU21636XXSP,2013-03-01 06:01:00,
2013-03-01 00:11:00,29.5,23.0,30.33,NE,45,0.0,0.0,78,0.00,,,0.00,WUHU21636XXSP,2013-03-01 06:11:00,
2013-03-01 00:21:00,29.3,23.2,30.34,NE,45,0.0,1.5,78,0.00,,,0.00,WUHU21636XXSP,2013-03-01 06:21:00,
2013-03-01 00:31:00,29.3,23.2,30.33,ENE,67,0.0,0.0,79,0.00,,,0.00,WUHU21636XXSP,2013-03-01 06:31:00,
2013-03-01 00:41:00,29.3,23.5,30.33,ENE,67,1.5,1.5,79,0.00,,,0.00,WUHU21636XXSP,2013-03-01 06:41:00,
2013-03-01 00:51:00,29.3,23.5,30.34,ENE,67,1.7,2.0,79,0.00,,,0.00,WUHU21636XXSP,2013-03-01 06:51:00,
2013-03-01 01:01:00,29.1,23.4,30.34,ENE,67,5.3,5.3,79,0.00,,,0.00,WUHU21636XXSP,2013-03-01 07:01:00,
2013-03-01 01:11:00,28.9,23.2,30.34,ENE,67,0.0,5.3,79,0.00,,,0.00,WUHU21636XXSP,2013-03-01 07:11:00,
2013-03-01 01:22:00,28.9,23.2,30.34,ENE,67,0.0,1.7,79,0.00,,,0.00,WUHU21636XXSP,2013-03-01 07:22:00,
2013-03-01 01:32:00,28.9,23.2,30.35,ENE,67,0.0,0.0,79,0.00,,,0.00,WUHU21636XXSP,2013-03-01 07:32:00,
2013-03-01 01:42:00,28.9,23.5,30.35,ENE,67,2.0,2.0,80,0.00,,,0.00,WUHU21636XXSP,2013-03-01 07:42:00,
2013-03-01 01:52:00,29.1,23.7,30.36,ENE,67,0.0,2.0,80,0.00,,,0.00,WUHU21636XXSP,2013-03-01 07:52:00,
2013-03-01 02:02:00,29.1,23.7,30.35,ENE,67,0.0,0.0,80,0.00,,,0.00,WUHU21636XXSP,2013-03-01 08:02:00,
2013-03-01 02:12:00,29.1,23.7,30.35,ENE,67,0.0,0.0,80,0.00,,,0.00,WUHU21636XXSP,2013-03-01 08:12:00,
2013-03-01 02:22:00,28.9,23.5,30.36,ENE,67,0.0,0.0,80,0.00,,,0.00,WUHU21636XXSP,2013-03-01 08:22:00,
2013-03-01 02:32:00,28.9,23.5,30.35,ENE,67,0.0,0.0,81,0.00,,,0.00,WUHU21636XXSP,2013-03-01 08:32:00,
2013-03-01 02:42:00,28.9,23.5,30.35,ENE,67,0.0,0.0,81,0.00,,,0.00,WUHU21636XXSP,2013-03-01 08:42:00,
2013-03-01 02:52:00,28.6,23.4,30.34,ENE,67,0.0,0.0,81,0.00,,,0.00,WUHU21636XXSP,2013-03-01 08:52:00,
2013-03-01 03:02:00,28.2,23.4,30.34,ENE,67,0.0,0.8,82,0.00,,,0.00,WUHU21636XXSP,2013-03-01 09:02:00,
2013-03-01 03:12:00,28.0,23.4,30.34,ENE,67,0.0,0.0,83,0.00,,,0.00,WUHU21636XXSP,2013-03-01 09:12:00,
2013-03-01 03:22:00,28.0,23.4,30.34,ENE,67,0.0,0.0,83,0.00,,,0.00,WUHU21636XXSP,2013-03-01 09:22:00,
2013-03-01 03:32:00,28.0,23.4,30.34,ENE,67,0.0,0.0,83,0.00,,,0.00,WUHU21636XXSP,2013-03-01 09:32:00,
2013-03-01 03:42:00,28.0,23.4,30.34,WNW,292,1.5,1.5,83,0.00,,,0.00,WUHU21636XXSP,2013-03-01 09:42:00,
2013-03-01 03:52:00,28.0,23.2,30.34,WNW,292,5.3,5.3,82,0.00,,,0.00,WUHU21636XXSP,2013-03-01 09:52:00,
2013-03-01 04:02:00,27.7,22.8,30.34,WNW,292,2.2,5.3,83,0.00,,,0.00,WUHU21636XXSP,2013-03-01 10:02:00,
2013-03-01 04:12:00,27.7,23.0,30.34,WNW,292,1.5,5.1,83,0.00,,,0.00,WUHU21636XXSP,2013-03-01 10:12:00,
2013-03-01 04:22:00,27.9,23.2,30.34,WNW,292,0.0,1.5,83,0.00,,,0.00,WUHU21636XXSP,2013-03-01 10:22:00,
2013-03-01 04:32:00,28.0,23.4,30.34,WNW,292,0.0,2.6,83,0.00,,,0.00,WUHU21636XXSP,2013-03-01 10:32:00,
2013-03-01 04:42:00,28.0,23.4,30.35,WNW,292,0.0,2.9,84,0.00,,,0.00,WUHU21636XXSP,2013-03-01 10:42:00,
2013-03-01 04:52:00,28.0,23.4,30.35,WNW,292,0.0,0.0,84,0.00,,,0.00,WUHU21636XXSP,2013-03-01 10:52:00,
2013-03-01 05:02:00,28.2,23.9,30.36,WNW,292,0.0,0.0,84,0.00,,,0.00,WUHU21636XXSP,2013-03-01 11:02:00,
2013-03-01 05:12:00,28.4,24.1,30.36,WNW,292,0.0,0.0,84,0.00,,,0.00,WUHU21636XXSP,2013-03-01 11:12:00,
2013-03-01 05:22:00,28.4,24.4,30.36,WNW,292,0.0,0.0,85,0.00,,,0.00,WUHU21636XXSP,2013-03-01 11:22:00,
2013-03-01 05:32:00,28.8,24.8,30.37,NNW,337,0.0,0.0,85,0.00,,,0.00,WUHU21636XXSP,2013-03-01 11:32:00,
2013-03-01 05:42:00,28.8,24.8,30.37,NW,315,0.0,2.9,85,0.00,,,0.00,WUHU21636XXSP,2013-03-01 11:42:00,
2013-03-01 05:52:00,28.8,24.8,30.36,WNW,292,1.5,1.5,85,0.00,,,0.00,WUHU21636XXSP,2013-03-01 11:52:00,
2013-03-01 06:02:00,28.6,24.6,30.37,WNW,292,3.5,4.4,85,0.00,,,0.00,WUHU21636XXSP,2013-03-01 12:02:00,
2013-03-01 06:12:00,28.6,24.8,30.37,North,0,0.0,1.1,86,0.00,,,0.00,WUHU21636XXSP,2013-03-01 12:12:00,
2013-03-01 06:22:00,28.6,24.8,30.37,NNW,337,0.0,2.4,86,0.00,,,0.00,WUHU21636XXSP,2013-03-01 12:22:00,
2013-03-01 06:32:00,28.4,24.6,30.37,WNW,292,1.7,3.3,86,0.00,,,0.00,WUHU21636XXSP,2013-03-01 12:32:00,
2013-03-01 06:42:00,28.4,24.6,30.38,WNW,292,2.2,2.9,86,0.00,,,0.00,WUHU21636XXSP,2013-03-01 12:42:00,
2013-03-01 06:52:00,28.6,25.2,30.37,West,270,2.9,3.5,87,0.00,,,0.00,WUHU21636XXSP,2013-03-01 12:52:00,
2013-03-01 07:02:00,28.8,25.3,30.37,WNW,292,1.1,3.5,87,0.00,,,0.00,WUHU21636XXSP,2013-03-01 13:02:00,
2013-03-01 07:12:00,28.6,25.2,30.37,WNW,292,2.9,6.9,87,0.00,,,0.00,WUHU21636XXSP,2013-03-01 13:12:00,
2013-03-01 07:22:00,28.6,25.2,30.38,NW,315,0.0,5.1,87,0.00,,,0.00,WUHU21636XXSP,2013-03-01 13:22:00,
2013-03-01 07:32:00,28.6,25.2,30.37,WNW,292,0.0,4.6,87,0.00,,,0.00,WUHU21636XXSP,2013-03-01 13:32:00,
2013-03-01 07:42:00,28.6,25.2,30.37,WNW,292,0.0,2.0,86,0.00,,,0.00,WUHU21636XXSP,2013-03-01 13:42:00,
2013-03-01 07:52:00,28.4,24.6,30.37,WNW,292,1.3,2.0,86,0.00,,,0.00,WUHU21636XXSP,2013-03-01 13:52:00,
2013-03-01 08:02:00,28.4,25.0,30.37,NW,315,0.0,4.4,87,0.00,,,0.00,WUHU21636XXSP,2013-03-01 14:02:00,
2013-03-01 08:12:00,28.4,25.0,30.37,WNW,292,3.8,8.0,87,0.00,,,0.00,WUHU21636XXSP,2013-03-01 14:12:00,
2013-03-01 08:22:00,28.4,25.0,30.38,WNW,292,3.8,8.2,87,0.00,,,0.00,WUHU21636XXSP,2013-03-01 14:22:00,
2013-03-01 08:32:00,28.2,24.8,30.38,West,270,3.8,5.3,87,0.00,,,0.00,WUHU21636XXSP,2013-03-01 14:32:00,
2013-03-01 08:42:00,28.0,24.6,30.39,WNW,292,2.9,9.8,87,0.00,,,0.00,WUHU21636XXSP,2013-03-01 14:42:00,
2013-03-01 08:52:00,28.0,24.3,30.39,West,270,4.0,8.2,86,0.00,,,0.00,WUHU21636XXSP,2013-03-01 14:52:00,
2013-03-01 09:02:00,28.0,24.3,30.39,WNW,292,5.1,6.7,86,0.00,,,0.00,WUHU21636XXSP,2013-03-01 15:02:00,
2013-03-01 09:12:00,28.6,24.8,30.40,WNW,292,4.0,8.5,86,0.00,,,0.00,WUHU21636XXSP,2013-03-01 15:12:00,
2013-03-01 09:22:00,28.9,25.2,30.40,WNW,292,4.6,8.9,85,0.00,,,0.00,WUHU21636XXSP,2013-03-01 15:22:00,
2013-03-01 09:32:00,29.5,25.5,30.40,WNW,292,3.3,9.3,85,0.00,,,0.00,WUHU21636XXSP,2013-03-01 15:32:00,
2013-03-01 09:42:00,30.0,25.7,30.40,NW,315,1.7,9.3,84,0.00,,,0.00,WUHU21636XXSP,2013-03-01 15:42:00,
2013-03-01 09:52:00,30.7,26.4,30.40,WNW,292,0.0,6.4,84,0.00,,,0.00,WUHU21636XXSP,2013-03-01 15:52:00,
2013-03-01 10:02:00,31.6,27.0,30.40,NNW,337,0.0,10.2,83,0.00,,,0.00,WUHU21636XXSP,2013-03-01 16:02:00,
2013-03-01 10:12:00,32.4,27.5,30.40,NW,315,2.4,9.1,82,0.00,,,0.00,WUHU21636XXSP,2013-03-01 16:12:00,
2013-03-01 10:22:00,33.1,27.9,30.40,NW,315,0.0,3.3,81,0.00,,,0.00,WUHU21636XXSP,2013-03-01 16:22:00,
2013-03-01 10:32:00,33.6,28.0,30.40,West,270,2.0,7.6,80,0.00,,,0.00,WUHU21636XXSP,2013-03-01 16:32:00,
2013-03-01 10:42:00,34.3,28.4,30.40,WNW,292,5.1,6.2,79,0.00,,,0.00,WUHU21636XXSP,2013-03-01 16:42:00,
2013-03-01 10:52:00,34.5,28.2,30.40,West,270,2.0,8.2,78,0.00,,,0.00,WUHU21636XXSP,2013-03-01 16:52:00,
2013-03-01 11:02:00,35.2,28.6,30.41,NW,315,1.1,7.8,77,0.00,,,0.00,WUHU21636XXSP,2013-03-01 17:02:00,
2013-03-01 11:12:00,35.4,28.4,30.41,NNW,337,6.7,12.0,76,0.00,,,0.00,WUHU21636XXSP,2013-03-01 17:12:00,
2013-03-01 11:22:00,35.8,28.8,30.41,North,0,4.6,8.7,76,0.00,,,0.00,WUHU21636XXSP,2013-03-01 17:22:00,
2013-03-01 11:32:00,36.1,28.9,30.41,NNE,22,3.5,9.8,74,0.00,,,0.00,WUHU21636XXSP,2013-03-01 17:32:00,
2013-03-01 11:42:00,36.7,29.1,30.41,North,0,5.5,12.5,74,0.00,,,0.00,WUHU21636XXSP,2013-03-01 17:42:00,
2013-03-01 11:52:00,36.7,28.8,30.41,NNE,22,2.4,13.4,73,0.00,,,0.00,WUHU21636XXSP,2013-03-01 17:52:00,
2013-03-01 12:02:00,37.2,29.3,30.40,North,0,3.5,14.3,73,0.00,,,0.00,WUHU21636XXSP,2013-03-01 18:02:00,
2013-03-01 12:12:00,37.9,29.3,30.41,NE,45,5.8,11.4,71,0.00,,,0.00,WUHU21636XXSP,2013-03-01 18:12:00,
2013-03-01 12:22:00,37.9,29.3,30.41,NNE,22,4.4,11.8,71,0.00,,,0.00,WUHU21636XXSP,2013-03-01 18:22:00,
2013-03-01 12:32:00,38.3,29.7,30.41,NNE,22,0.0,10.9,71,0.00,,,0.00,WUHU21636XXSP,2013-03-01 18:32:00,
2013-03-01 12:42:00,38.5,29.8,30.40,NNW,337,0.0,5.3,71,0.00,,,0.00,WUHU21636XXSP,2013-03-01 18:42:00,
2013-03-01 12:52:00,38.8,29.8,30.40,NNW,337,2.4,12.9,70,0.00,,,0.00,WUHU21636XXSP,2013-03-01 18:52:00,
2013-03-01 13:02:00,39.4,29.8,30.40,North,0,6.4,12.0,69,0.00,,,0.00,WUHU21636XXSP,2013-03-01 19:02:00,
2013-03-01 13:12:00,39.6,29.7,30.40,North,0,5.8,12.3,68,0.00,,,0.00,WUHU21636XXSP,2013-03-01 19:12:00,
2013-03-01 13:22:00,39.9,30.4,30.40,North,0,4.4,10.2,69,0.00,,,0.00,WUHU21636XXSP,2013-03-01 19:22:00,
2013-03-01 13:32:00,40.1,29.5,30.39,NNW,337,4.0,10.9,66,0.00,,,0.00,WUHU21636XXSP,2013-03-01 19:32:00,
2013-03-01 13:42:00,40.8,29.8,30.39,NNE,22,6.4,12.9,65,0.00,,,0.00,WUHU21636XXSP,2013-03-01 19:42:00,
2013-03-01 13:53:00,41.2,30.2,30.39,ENE,67,3.1,10.7,65,0.00,,,0.00,WUHU21636XXSP,2013-03-01 19:53:00,
2013-03-01 14:03:00,41.7,30.7,30.39,NNE,22,4.0,9.1,65,0.00,,,0.00,WUHU21636XXSP,2013-03-01 20:03:00,
2013-03-01 14:13:00,42.3,30.0,30.39,NNE,22,5.8,10.9,62,0.00,,,0.00,WUHU21636XXSP,2013-03-01 20:13:00,
2013-03-01 14:23:00,41.9,29.7,30.39,North,0,4.6,5.8,62,0.00,,,0.00,WUHU21636XXSP,2013-03-01 20:23:00,
2013-03-01 14:33:00,41.4,29.7,30.39,NNW,337,2.2,11.8,63,0.00,,,0.00,WUHU21636XXSP,2013-03-01 20:33:00,
2013-03-01 14:43:00,41.4,30.0,30.38,NNW,337,1.3,4.6,63,0.00,,,0.00,WUHU21636XXSP,2013-03-01 20:43:00,
2013-03-01 14:53:00,40.8,30.2,30.38,East,90,2.4,10.5,66,0.00,,,0.00,WUHU21636XXSP,2013-03-01 20:53:00,
2013-03-01 15:03:00,39.9,30.4,30.39,ESE,112,5.5,8.5,69,0.00,,,0.00,WUHU21636XXSP,2013-03-01 21:03:00,
2013-03-01 15:13:00,39.6,30.7,30.39,East,90,0.0,5.5,71,0.00,,,0.00,WUHU21636XXSP,2013-03-01 21:13:00,
2013-03-01 15:23:00,39.7,30.9,30.38,ESE,112,0.8,3.8,70,0.00,,,0.00,WUHU21636XXSP,2013-03-01 21:23:00,
2013-03-01 15:33:00,39.7,30.7,30.39,ENE,67,2.9,4.2,70,0.00,,,0.00,WUHU21636XXSP,2013-03-01 21:33:00,
2013-03-01 15:43:00,39.2,30.2,30.39,ESE,112,0.0,4.9,70,0.00,,,0.00,WUHU21636XXSP,2013-03-01 21:43:00,
2013-03-01 15:53:00,39.0,30.0,30.39,East,90,0.0,3.1,70,0.00,,,0.00,WUHU21636XXSP,2013-03-01 21:53:00,
2013-03-01 16:03:00,39.9,31.5,30.38,SE,135,4.2,4.2,72,0.00,,,0.00,WUHU21636XXSP,2013-03-01 22:03:00,
2013-03-01 16:13:00,40.3,30.7,30.39,SE,135,0.0,4.2,69,0.00,,,0.00,WUHU21636XXSP,2013-03-01 22:13:00,
2013-03-01 16:23:00,40.1,30.6,30.39,East,90,0.0,0.6,69,0.00,,,0.00,WUHU21636XXSP,2013-03-01 22:23:00,
2013-03-01 16:33:00,40.3,30.7,30.39,ENE,67,0.0,0.0,69,0.00,,,0.00,WUHU21636XXSP,2013-03-01 22:33:00,
2013-03-01 16:43:00,40.8,31.3,30.39,ENE,67,0.0,0.0,69,0.00,,,0.00,WUHU21636XXSP,2013-03-01 22:43:00,
2013-03-01 16:53:00,40.3,30.4,30.39,East,90,0.0,2.9,68,0.00,,,0.00,WUHU21636XXSP,2013-03-01 22:53:00,
2013-03-01 17:03:00,39.7,30.2,30.39,SE,135,0.4,2.9,69,0.00,,,0.00,WUHU21636XXSP,2013-03-01 23:03:00,
2013-03-01 17:13:00,39.2,29.7,30.40,SE,135,4.2,4.2,69,0.00,,,0.00,WUHU21636XXSP,2013-03-01 23:13:00,
2013-03-01 17:23:00,38.8,29.8,30.40,SE,135,3.5,4.2,70,0.00,,,0.00,WUHU21636XXSP,2013-03-01 23:23:00,
2013-03-01 17:33:00,38.5,29.8,30.41,SE,135,0.0,3.5,71,0.00,,,0.00,WUHU21636XXSP,2013-03-01 23:33:00,
2013-03-01 17:43:00,38.5,29.8,30.41,SE,135,0.0,0.0,71,0.00,,,0.00,WUHU21636XXSP,2013-03-01 23:43:00,
2013-03-01 17:53:00,38.7,30.0,30.41,SE,135,0.0,4.0,72,0.00,,,0.00,WUHU21636XXSP,2013-03-01 23:53:00,
2013-03-01 18:03:00,38.5,30.2,30.41,ESE,112,0.4,1.7,71,0.00,,,0.00,WUHU21636XXSP,2013-03-02 00:03:00,
2013-03-01 18:13:00,38.1,29.5,30.41,SE,135,0.0,1.1,71,0.00,,,0.00,WUHU21636XXSP,2013-03-02 00:13:00,
2013-03-01 18:23:00,37.6,29.3,30.41,East,90,0.0,0.0,72,0.00,,,0.00,WUHU21636XXSP,2013-03-02 00:23:00,
2013-03-01 18:33:00,36.7,28.8,30.42,ESE,112,0.0,0.4,73,0.00,,,0.00,WUHU21636XXSP,2013-03-02 00:33:00,
2013-03-01 18:43:00,36.3,28.8,30.42,SE,135,0.0,0.0,74,0.00,,,0.00,WUHU21636XXSP,2013-03-02 00:43:00,
2013-03-01 18:53:00,35.8,28.6,30.41,SE,135,0.0,2.0,75,0.00,,,0.00,WUHU21636XXSP,2013-03-02 00:53:00,
2013-03-01 19:03:00,35.6,28.4,30.42,SE,135,0.0,0.0,75,0.00,,,0.00,WUHU21636XXSP,2013-03-02 01:03:00,
2013-03-01 19:13:00,35.2,28.0,30.42,SE,135,0.0,1.1,75,0.00,,,0.00,WUHU21636XXSP,2013-03-02 01:13:00,
2013-03-01 19:23:00,34.5,27.9,30.41,ESE,112,0.4,1.1,77,0.00,,,0.00,WUHU21636XXSP,2013-03-02 01:23:00,
2013-03-01 19:33:00,34.5,27.9,30.42,SSW,202,0.0,0.4,77,0.00,,,0.00,WUHU21636XXSP,2013-03-02 01:33:00,
2013-03-01 19:43:00,33.6,27.0,30.42,WSW,247,0.0,3.1,77,0.00,,,0.00,WUHU21636XXSP,2013-03-02 01:43:00,
2013-03-01 19:53:00,33.6,27.0,30.42,WSW,247,0.0,0.0,77,0.00,,,0.00,WUHU21636XXSP,2013-03-02 01:53:00,
2013-03-01 20:03:00,33.3,26.6,30.42,WSW,247,0.0,0.0,77,0.00,,,0.00,WUHU21636XXSP,2013-03-02 02:03:00,
2013-03-01 20:13:00,33.1,26.8,30.42,WSW,247,0.0,0.0,78,0.00,,,0.00,WUHU21636XXSP,2013-03-02 02:13:00,
2013-03-01 20:23:00,32.9,26.6,30.42,WSW,247,0.0,0.0,78,0.00,,,0.00,WUHU21636XXSP,2013-03-02 02:23:00,
2013-03-01 20:33:00,32.7,26.6,30.42,WSW,247,0.0,0.0,78,0.00,,,0.00,WUHU21636XXSP,2013-03-02 02:33:00,
2013-03-01 20:43:00,32.5,26.6,30.43,WSW,247,0.0,0.0,79,0.00,,,0.00,WUHU21636XXSP,2013-03-02 02:43:00,
2013-03-01 20:53:00,32.5,26.6,30.43,WSW,247,0.0,0.0,79,0.00,,,0.00,WUHU21636XXSP,2013-03-02 02:53:00,
2013-03-01 21:05:00,32.2,26.4,30.43,WSW,247,0.0,0.0,79,0.00,,,0.00,WUHU21636XXSP,2013-03-02 03:05:00,
2013-03-01 21:17:00,31.8,26.1,30.43,WSW,247,0.0,0.0,79,0.00,,,0.00,WUHU21636XXSP,2013-03-02 03:17:00,
2013-03-01 21:29:00,31.6,25.9,30.43,WSW,247,0.0,0.0,79,0.00,,,0.00,WUHU21636XXSP,2013-03-02 03:29:00,
2013-03-01 21:42:00,31.5,25.7,30.43,WSW,247,0.0,0.0,79,0.00,,,0.00,WUHU21636XXSP,2013-03-02 03:42:00,
2013-03-01 21:54:00,30.9,25.5,30.43,WSW,247,0.0,0.0,80,0.00,,,0.00,WUHU21636XXSP,2013-03-02 03:54:00,
2013-03-01 22:06:00,30.7,25.3,30.43,WSW,247,0.0,0.0,80,0.00,,,0.00,WUHU21636XXSP,2013-03-02 04:06:00,
2013-03-01 22:19:00,30.7,25.3,30.43,WSW,247,0.0,0.0,81,0.00,,,0.00,WUHU21636XXSP,2013-03-02 04:19:00,
2013-03-01 22:31:00,30.6,25.3,30.43,WSW,247,0.0,0.0,81,0.00,,,0.00,WUHU21636XXSP,2013-03-02 04:31:00,
2013-03-01 22:51:00,30.2,25.0,30.42,WSW,247,0.0,0.0,81,0.00,,,0.00,WUHU21636XXSP,2013-03-02 04:51:00,
2013-03-01 22:56:00,30.0,24.8,30.43,WSW,247,0.0,0.0,81,0.00,,,0.00,WUHU21636XXSP,2013-03-02 04:56:00,
2013-03-01 23:07:00,30.0,24.8,30.43,WSW,247,0.0,0.0,81,0.00,,,0.00,WUHU21636XXSP,2013-03-02 05:07:00,
2013-03-01 23:19:00,29.8,24.4,30.43,WSW,247,0.0,0.0,80,0.00,,,0.00,WUHU21636XXSP,2013-03-02 05:19:00,
2013-03-01 23:30:00,29.8,24.4,30.43,WSW,247,0.0,0.0,80,0.00,,,0.00,WUHU21636XXSP,2013-03-02 05:30:00,
2013-03-01 23:43:00,29.5,24.1,30.43,WSW,247,0.0,0.0,80,0.00,,,0.00,WUHU21636XXSP,2013-03-02 05:43:00,
2013-03-01 23:55:00,29.3,23.9,30.43,WSW,247,0.0,0.0,80,0.00,,,0.00,WUHU21636XXSP,2013-03-02 05:55:00,